Location: Woodcocks Well
(22.9333°S, 115.5833°E)
Time: 21:56:29
(UTC+00:00)

Daily predictions for brighter satellites

Satellite Brightness Start Highest point End
(mag) Time Altitude Azimuth Time Altitude Azimuth Time Altitude Azimuth
Aureole 3 3.3 12:00:05 10° SSE 12:02:56 36° E 12:04:47 19° NE
Delta 128 3.9 12:01:53 10° W 12:06:23 70° SSW 12:11:21 10° ESE
Meteor 1-21 Rocket 4.2 12:03:25 10° S 12:08:58 67° E 12:14:31 10° NNE
USA 238 DEB 4.1 12:08:29 10° NNW 12:16:45 83° ENE 12:24:42 10° SSE
USA 238 4.1 12:08:36 10° NNW 12:16:52 82° ENE 12:24:48 10° SSE
SEDSat Delta rocket 3.2 12:13:53 10° WSW 12:18:13 66° NNW 12:20:45 27° NE
BREEZE-M DEB (TANK) 2.7 12:16:50 10° WSW 12:19:16 38° NW 12:20:47 22° NNE
Cosmos 1697 Rocket 3.6 12:18:59 23° NE 12:20:49 27° ENE 12:25:29 10° SE
Cosmos 1833 4.1 12:16:06 10° SSW 12:21:47 82° ESE 12:25:58 19° NNE
CZ-4 R/B 1.9 12:22:12 10° SSE 12:25:41 33° E 12:25:41 33° E
Intelsat 5-1 Rocket 0.7 12:23:53 10° W 12:26:13 89° NNE 12:26:41 57° E
Cosmos 1378 Rocket 3.6 12:21:55 10° S 12:26:18 60° E 12:28:26 28° NNE
SPOT 5 2.8 12:30:57 10° SSE 12:35:22 49° E 12:36:33 38° NE
Meteor 1-11 4.1 12:30:46 10° S 12:36:26 70° E 12:39:28 28° NNE
Terra 3.9 12:33:28 10° SE 12:34:04 12° ESE 12:34:04 12° ESE
OAO 3 Copernicus 4.4 12:32:24 10° NW 12:37:14 49° NNE 12:38:38 38° ENE
Cosmos 1674 Rocket 3.4 12:40:48 10° S 12:45:07 68° E 12:45:50 55° NE
Fermi 4.1 12:41:14 10° W 12:45:08 56° S 12:46:05 43° SE
Cosmos 1300 Rocket 3.7 12:45:15 50° E 12:45:22 51° E 12:49:38 10° SSE
Cosmos 1867 3.9 12:41:44 10° S 12:46:56 48° ESE 12:48:02 42° E
GOES 2 Rocket 4.0 12:45:54 10° WSW 12:51:47 85° SSE 12:54:52 38° ENE
Cosmos 1782 Rocket 3.8 12:52:20 50° ESE 12:52:20 50° ESE 12:56:17 10° SSE
Cosmos 2221 Rocket 4.0 12:48:32 10° S 12:52:24 44° ESE 12:52:24 44° ESE
Resurs 01 Rocket 4.2 12:50:06 10° SSW 12:53:22 21° WSW 12:56:37 10° WNW
Cosmos 1908 Rocket 4.2 12:52:57 17° NNW 12:56:14 56° W 13:00:38 10° S
CZ-4C R/B 2.3 12:52:42 10° S 12:56:22 36° SE 12:56:22 36° SE
CZ-4B R/B 3.6 12:56:12 10° SSE 13:01:12 45° E 13:01:12 45° E
Cosmos 2100 Rocket 3.9 13:00:26 42° NNE 13:02:35 69° E 13:08:46 10° S
Atlas Centaur 2 1.5 12:58:12 10° WSW 13:03:02 67° NW 13:03:02 67° NW
CBERS 1 LM4 rocket 4.2 12:59:13 10° SSE 13:03:51 68° E 13:03:51 68° E
Helios 1A 4.4 13:05:40 25° SSE 13:05:40 25° SSE 13:07:44 10° S
CZ-4B DEB 4.1 13:02:00 10° SSE 13:07:34 85° ENE 13:09:21 45° N
CSL-04 Rocket 3.9 13:02:08 10° S 13:07:41 69° WSW 13:11:43 19° NNW
Cosmos 1459 Rocket 3.9 13:13:43 54° N 13:15:16 81° E 13:21:39 10° S
NOSS 3-3 (C) 3.5 13:15:56 10° SSW 13:21:01 67° SSE 13:21:01 67° SSE
Cosmos 967 Rocket 4.3 13:20:23 53° N 13:21:58 81° ENE 13:28:17 10° SSE
USA 59 Rocket 1.6 13:20:46 53° NE 13:22:03 59° ENE 13:31:22 10° SE
MOS 1 4.2 13:25:14 10° SSE 13:30:58 86° WSW 13:31:00 86° W
Lacrosse 5 rocket 3.7 13:28:24 10° SSW 13:29:10 16° SSW 13:29:10 16° SSW
Cosmos 2173 Rocket 4.3 13:32:08 41° NW 13:34:14 62° W 13:40:25 10° S
Cosmos 2344 4.4 13:19:39 10° SSW 13:34:22 75° ESE 13:37:49 52° NE
Cosmos 1802 Rocket 3.9 13:36:43 85° N 13:36:56 90° N 13:43:27 10° S
Longmarch 3A Rocket 4.4 12:48:28 10° WNW 13:39:55 77° SSW 13:43:40 37° ESE
Cosmos 1864 Rocket 4.4 13:40:12 83° SW 13:40:12 83° SW 13:46:18 10° S
Cosmos 1980 Rocket 3.7 13:45:06 27° SSE 13:45:06 27° SSE 13:47:38 10° SSE
Mugunghwa Rocket 4.2 13:37:19 10° W 13:44:47 76° S 13:45:29 70° SE
ERS-1 Rocket 3.8 13:45:46 10° S 13:49:51 47° SW 13:49:51 47° SW
Cosmos 2297 Rocket 3.2 13:49:11 10° S 13:52:53 40° S 13:52:53 40° S
BREEZE-M DEB (TANK) 4.2 13:46:19 10° SW 14:10:42 81° SE 14:10:56 80° ESE
Terra 3.8 14:09:54 10° SSW 14:12:41 25° SW 14:12:41 25° SW
Okean O Rocket 4.3 14:19:20 10° SSW 14:20:27 16° SSW 14:20:27 16° SSW
Cosmos 2227 Rocket 4.3 14:45:23 10° SSW 14:47:20 22° SSW 14:47:20 22° SSW
USA 59 Rocket 3.3 15:06:09 14° WNW 15:11:58 29° SW 15:20:09 10° S
Centaur D-1A AC-31 3.6 17:13:09 61° SE 17:13:09 61° SE 17:48:14 10° E
Centaur D-1A AC-31 3.6 17:13:09 61° SE 17:13:09 61° SE 17:48:15 10° E
Centaur D-1A AC-31 3.6 17:13:08 61° SE 17:13:08 61° SE 17:48:14 10° E
ATLAS 5 CENTAUR R/B 4.4 18:07:54 24° E 18:07:54 24° E 18:11:53 10° SE
ACS3 Solar Sail 3.6 18:10:29 23° S 18:10:29 23° S 18:12:31 10° S
ADEOS II 4.2 18:31:14 21° S 18:31:14 21° S 18:32:55 10° S
Cosmos 2237 Rocket 4.0 18:32:16 25° S 18:32:16 25° S 18:34:41 10° S
CENTAUR R/B 4.3 18:29:20 10° SSE 18:31:55 18° SE 18:31:55 18° SE
ATLAS 3B R/B 4.4 18:35:03 19° SSW 18:35:03 19° SSW 18:37:45 10° S
Centaur D-1AR AC-40 4.3 18:36:49 22° ENE 18:36:49 22° ENE 18:39:52 10° ENE
SL-16 R/B 3.7 18:38:18 31° ESE 18:38:18 31° ESE 18:41:57 10° SE
Lacrosse 4 Rocket 4.2 18:47:58 10° S 18:48:53 15° SSE 18:48:53 15° SSE
MOS 1-B Rocket 4.3 18:58:06 66° S 18:58:06 66° S 19:04:04 10° SSW
Cosmos 2278 Rocket 3.0 18:53:23 10° S 18:58:10 49° SE 18:58:10 49° SE
Cosmos 1943 Rocket 3.1 18:55:21 10° S 18:59:11 43° S 18:59:11 43° S
Cosmos 2315 Rocket 4.1 19:06:37 69° E 19:06:37 69° E 19:12:45 10° S
Cosmos 883 Rocket 4.5 19:12:55 80° SE 19:12:55 80° SE 19:18:53 10° S
Aurora 2 Rocket 3.9 19:12:22 66° WSW 19:13:38 81° S 19:23:09 10° E
SL-12 R/B(2) 4.4 19:08:47 10° SW 19:13:57 43° WSW 19:13:57 43° WSW
Delta 2 Rocket 4.1 19:27:22 58° WSW 19:28:56 86° S 19:36:58 10° ENE
H-2A R/B 4.0 19:34:40 17° SW 19:34:40 17° SW 19:35:59 10° SW
CZ-2C R/B 2.9 19:33:58 42° ENE 19:35:10 54° ESE 19:39:53 10° S
Spot 2 4.3 19:33:38 10° SSE 19:38:20 84° SE 19:38:20 84° SE
Cosmos 921 Rocket 3.4 19:34:25 10° S 19:38:22 62° SSE 19:38:22 62° SSE
Meteor 1-11 Rocket 3.9 19:35:25 10° SSW 19:40:56 57° WSW 19:40:56 57° WSW
Cosmos 1766 Rocket 4.2 19:37:38 10° S 19:40:56 49° SSW 19:40:56 49° SSW
Cosmos 1709 Rocket 3.8 19:37:42 10° S 19:43:55 90° WSW 19:46:10 42° N
MOZ.5/SAFIR/RUBIN 5/SL-8 4.5 19:39:47 10° S 19:43:20 42° SW 19:43:20 42° SW
H-2A R/B 4.1 19:44:09 10° S 19:45:48 22° SSW 19:45:48 22° SSW
ATLAS 5 CENTAUR R/B 3.1 19:47:19 42° W 19:48:24 45° WSW 19:55:11 10° SSE
DMSP B5D2-2 4.1 19:44:25 10° SSE 19:49:40 78° ENE 19:50:58 51° N
Cosmos 1745 Rocket 4.1 19:47:03 10° SSW 19:53:06 51° W 19:53:36 50° WNW
Cosmos 1943 3.5 19:52:10 38° N 19:54:17 65° ENE 19:59:55 10° SSE
Okean 3 Rocket 4.3 19:55:01 10° S 19:59:18 52° E 20:02:29 17° NNE
TSX-5 4.2 20:03:47 43° NE 20:04:09 45° ENE 20:07:17 10° SE
Cosmos 1371 Rocket 4.1 20:02:22 35° N 20:04:32 73° ENE 20:09:47 10° SSE
NOSS 3-2 (A) 3.8 19:59:44 10° SSW 20:05:06 50° ESE 20:09:45 10° NE
SWIFT 3.7 20:07:13 20° NE 20:07:13 20° NE 20:08:33 10° ENE
Cosmos 1151 Rocket 2.9 20:06:03 51° N 20:07:07 89° E 20:11:28 10° S
Cosmos 1624 Rocket 4.0 20:07:38 35° N 20:09:54 85° ENE 20:15:09 10° SSE
CZ-3 R/B 3.2 19:56:22 28° WNW 20:10:37 79° NNE 20:18:16 10° ESE
ARGOS 3.8 20:11:22 34° W 20:11:22 34° W 20:15:50 10° SW
Cosmos 1140 Rocket 3.4 20:07:39 10° SSW 20:12:44 63° WNW 20:15:57 22° N
Cosmos 1939 Rocket 2.9 20:11:48 19° NNE 20:14:28 71° ESE 20:18:19 10° S
In-Cosmos 22 4.0 20:13:24 27° N 20:16:28 81° W 20:21:54 10° S
SL-16 R/B 3.8 20:12:02 10° SSE 20:17:51 39° E 20:23:34 10° NNE
H-2A R/B 3.5 20:14:41 10° NNE 20:18:25 68° ESE 20:22:16 10° S
GPS 2-17 Rocket1 3.0 20:18:28 47° NNW 20:18:52 49° N 20:22:56 10° ENE
DELTA 2 R/B (1) 3.8 20:18:22 33° W 20:20:43 59° SSW 20:26:14 10° SE
SL-16 R/B 3.6 20:20:11 20° WSW 20:20:50 20° WSW 20:24:55 10° SSW
Cosmos 1269 Rocket 4.2 20:18:16 10° SSW 20:23:18 46° WNW 20:26:30 21° NNW
Meteor 2-10 Rocket 3.8 20:18:39 10° S 20:23:40 64° E 20:28:37 10° NNE
NOSS 3-4 (A) 4.3 20:21:38 23° NW 20:27:39 74° WSW 20:36:28 10° SSE
NOSS 3-4 (C) 4.3 20:21:47 23° NW 20:27:50 75° WSW 20:36:37 10° SSE
Cosmos 1656 Rocket 3.6 20:28:52 10° SSW 20:34:30 84° WNW 20:40:09 10° NNE
USA 234 3.2 20:28:33 10° NNE 20:35:04 71° NW 20:41:38 10° SW
FengYun 1-2 T 4.1 20:30:47 10° N 20:36:12 66° WNW 20:41:42 10° SSW
FALCON 9 R/B 3.7 20:26:08 10° WSW 20:36:17 27° WNW 20:40:37 10° N
Centaur Rocket 3.0 20:38:19 31° NNW 20:38:57 35° N 20:43:13 10° ENE
Intelsat 5-3 Rocket 4.4 20:41:09 15° W 20:46:38 86° S 21:02:25 10° E
SJ-11-01 4.4 20:42:35 10° N 20:47:04 51° W 20:51:38 10° SSW
Cosmos 2184 Rocket 4.0 20:42:18 10° S 20:48:41 90° SSW 20:54:56 10° N
Sich 1 3.6 20:45:36 10° SSW 20:49:33 35° W 20:53:00 12° NNW
CZ-4 R/B 4.0 20:49:57 10° NNE 20:54:55 85° ESE 20:59:57 10° S
Cosmos 1328 Rocket 3.6 20:51:44 10° N 20:56:04 83° E 21:00:24 10° S
Meteor 1-28 Rocket 3.9 20:53:55 10° SSE 20:57:11 46° E 21:00:23 10° N
OAO 2 Rocket 3.7 20:53:28 10° WSW 20:58:42 70° SSE 21:03:57 10° ENE
Cosmos 1743 Rocket 3.6 20:54:22 10° S 20:58:51 90° W 21:03:17 10° N
Delta 7925 Rocket 3.7 20:57:39 16° WNW 21:01:44 67° NNE 21:07:54 10° E
Cosmos 407 Rocket 3.8 20:58:20 10° SSW 21:03:08 40° W 21:07:52 10° N
SJ 16-02 1.6 21:00:46 10° S 21:05:04 70° ESE 21:09:17 10° NNE
Aurora 2 Rocket 4.5 20:57:35 10° W 21:06:18 83° S 21:16:19 10° E
Cosmos 2074 Rocket 4.1 21:02:35 10° SSW 21:08:44 56° W 21:14:52 10° NNW
Cosmos 1703 3.1 21:15:33 10° N 21:18:49 73° E 21:22:08 10° S
Cosmos 1603 4.2 21:15:33 10° NW 21:20:52 42° WSW 21:26:18 10° S
Cosmos 2251 Rocket 3.7 21:21:40 10° SSW 21:26:53 54° WNW 21:32:05 10° N
